WAT227 ULLI-ULAA

Flight info

Callsign WAT227
Flight time N/A
Altitude 33000
Route RELNI1B RELNI T693 DISUP DCT MAKOG MAKOG4E
Aircraft T154/M-SDGRWY/S

Departure

Time N/A
Airport Pulkovo Airport (ULLI)

Arrival

Time 2026-04-26 03:48
Airport Talagi Airport (ULAA)
Time Latitude Longitude Altitude Speed Heading
2026-04-26 03:16 63.12506 36.37461 32833 ft 513 kts 44°
2026-04-26 03:16 63.17545 36.48571 32833 ft 512 kts 44°
2026-04-26 03:17 63.22114 36.58747 32843 ft 512 kts 44°
2026-04-26 03:17 63.27311 36.70396 32834 ft 512 kts 45°
2026-04-26 03:18 63.32265 36.81583 32846 ft 512 kts 45°
2026-04-26 03:18 63.37119 36.92574 32844 ft 512 kts 45°
2026-04-26 03:19 63.41887 37.03425 32868 ft 511 kts 45°
2026-04-26 03:19 63.46849 37.14770 32872 ft 511 kts 45°
2026-04-26 03:20 63.51768 37.26080 32884 ft 511 kts 45°
2026-04-26 03:20 63.56606 37.37261 32896 ft 511 kts 45°
2026-04-26 03:21 63.61526 37.48692 32901 ft 511 kts 45°
2026-04-26 03:21 63.66355 37.59970 32906 ft 511 kts 45°
2026-04-26 03:22 63.71231 37.71431 32904 ft 511 kts 46°
2026-04-26 03:22 63.76063 37.82864 32917 ft 511 kts 46°
2026-04-26 03:23 63.80765 37.94025 32926 ft 511 kts 46°
2026-04-26 03:23 63.85582 38.05515 32930 ft 511 kts 46°
2026-04-26 03:24 63.90363 38.16980 32936 ft 510 kts 46°
2026-04-26 03:24 63.95221 38.28690 32939 ft 511 kts 46°
2026-04-26 03:25 64.00007 38.40291 32937 ft 510 kts 46°
2026-04-26 03:25 64.04758 38.51869 32956 ft 510 kts 46°
2026-04-26 03:26 64.09543 38.63590 32967 ft 510 kts 46°
2026-04-26 03:26 64.14358 38.75410 32827 ft 513 kts 46°
2026-04-26 03:27 64.16785 38.81397 32186 ft 524 kts 46°
2026-04-26 03:27 64.19101 38.87136 31602 ft 518 kts 46°
2026-04-26 03:27 64.21502 38.93111 30957 ft 510 kts 46°
2026-04-26 03:27 64.23804 38.98854 30101 ft 501 kts 45°
2026-04-26 03:28 64.26100 39.04593 29189 ft 493 kts 45°
2026-04-26 03:28 64.28378 39.10305 28302 ft 485 kts 45°
2026-04-26 03:28 64.30626 39.15953 27421 ft 476 kts 45°
2026-04-26 03:28 64.32808 39.21450 26548 ft 468 kts 45°
2026-04-26 03:29 64.34896 39.26725 25663 ft 459 kts 44°
2026-04-26 03:29 64.37016 39.32094 24751 ft 450 kts 44°
2026-04-26 03:29 64.39096 39.37374 23813 ft 441 kts 44°
2026-04-26 03:29 64.41124 39.42534 22885 ft 431 kts 44°
2026-04-26 03:30 64.43057 39.47454 21969 ft 422 kts 44°
2026-04-26 03:30 64.44983 39.52378 21032 ft 413 kts 44°
2026-04-26 03:30 64.46877 39.57233 20083 ft 405 kts 44°
2026-04-26 03:30 64.48761 39.62070 19119 ft 398 kts 44°
2026-04-26 03:31 64.50552 39.66678 18176 ft 391 kts 46°
2026-04-26 03:31 64.52351 39.71336 17166 ft 386 kts 46°
2026-04-26 03:31 64.54083 39.75826 16175 ft 380 kts 46°
2026-04-26 03:31 64.55847 39.80397 15159 ft 373 kts 46°
2026-04-26 03:32 64.57529 39.84753 14171 ft 368 kts 46°
2026-04-26 03:32 64.59209 39.89125 13179 ft 360 kts 43°
2026-04-26 03:32 64.61160 39.92406 12277 ft 347 kts 24°
2026-04-26 03:32 64.63322 39.94592 11448 ft 334 kts 12°
2026-04-26 03:33 64.65539 39.95085 10541 ft 322 kts 349°
2026-04-26 03:33 64.67603 39.93553 9659 ft 309 kts 327°
2026-04-26 03:33 64.69377 39.90789 9034 ft 305 kts 318°
2026-04-26 03:33 64.70702 39.87027 8420 ft 300 kts 293°
2026-04-26 03:34 64.71375 39.82468 7879 ft 296 kts 283°
2026-04-26 03:34 64.71845 39.77815 7361 ft 293 kts 281°
2026-04-26 03:34 64.72279 39.73186 6841 ft 292 kts 281°
2026-04-26 03:34 64.72704 39.68584 6326 ft 290 kts 281°
2026-04-26 03:35 64.73126 39.64002 5808 ft 289 kts 281°
2026-04-26 03:35 64.73511 39.59414 5269 ft 287 kts 273°
2026-04-26 03:35 64.73247 39.54859 4640 ft 287 kts 247°
2026-04-26 03:35 64.72142 39.51041 4023 ft 286 kts 221°
2026-04-26 03:36 64.70432 39.48688 3450 ft 284 kts 201°
2026-04-26 03:36 64.68521 39.47858 2875 ft 281 kts 175°
2026-04-26 03:36 64.66688 39.49065 2274 ft 279 kts 148°
2026-04-26 03:36 64.65363 39.52107 2203 ft 257 kts 118°
2026-04-26 03:37 64.64863 39.55940 2184 ft 237 kts 96°
2026-04-26 03:37 64.64656 39.59640 2084 ft 233 kts 98°
2026-04-26 03:37 64.64423 39.63431 1957 ft 239 kts 98°
2026-04-26 03:37 64.64180 39.67277 1894 ft 241 kts 98°
2026-04-26 03:38 64.63922 39.71188 1840 ft 242 kts 98°
2026-04-26 03:38 64.63668 39.74944 1923 ft 227 kts 98°
2026-04-26 03:38 64.63427 39.78460 1811 ft 209 kts 98°
2026-04-26 03:38 64.63215 39.81456 1918 ft 165 kts 98°
2026-04-26 03:39 64.63030 39.84017 1867 ft 160 kts 98°
2026-04-26 03:39 64.62847 39.86578 1856 ft 157 kts 99°
2026-04-26 03:39 64.62690 39.89047 1904 ft 151 kts 96°
2026-04-26 03:39 64.62725 39.91414 2137 ft 151 kts 86°
2026-04-26 03:40 64.62817 39.93938 2349 ft 157 kts 86°
2026-04-26 03:40 64.62910 39.96410 2813 ft 151 kts 86°
2026-04-26 03:40 64.63007 39.98837 3287 ft 148 kts 86°
2026-04-26 03:40 64.63109 40.01233 3614 ft 161 kts 86°
2026-04-26 03:41 64.63205 40.03998 3697 ft 174 kts 89°
2026-04-26 03:41 64.63193 40.06696 4225 ft 161 kts 95°
2026-04-26 03:41 64.63119 40.09358 4543 ft 169 kts 96°
2026-04-26 03:41 64.63028 40.12055 4985 ft 164 kts 96°
2026-04-26 03:42 64.62924 40.14644 5335 ft 168 kts 99°
2026-04-26 03:42 64.62728 40.17532 5253 ft 189 kts 102°
2026-04-26 03:42 64.62484 40.20580 4820 ft 194 kts 102°
2026-04-26 03:42 64.62262 40.23671 4272 ft 196 kts 100°
2026-04-26 03:43 64.62088 40.26790 3840 ft 187 kts 98°
2026-04-26 03:43 64.61960 40.29703 3515 ft 176 kts 97°
2026-04-26 03:43 64.61855 40.32483 3272 ft 167 kts 96°
2026-04-26 03:43 64.61752 40.35098 3065 ft 159 kts 97°
2026-04-26 03:44 64.61644 40.37625 2864 ft 154 kts 97°
2026-04-26 03:44 64.61533 40.40097 2644 ft 152 kts 98°
2026-04-26 03:44 64.61416 40.42527 2427 ft 151 kts 98°
2026-04-26 03:44 64.61298 40.44939 2223 ft 150 kts 97°
2026-04-26 03:45 64.61181 40.47343 2011 ft 148 kts 97°
2026-04-26 03:45 64.61070 40.49742 1777 ft 148 kts 96°
2026-04-26 03:45 64.60958 40.52148 1558 ft 148 kts 97°
2026-04-26 03:45 64.60848 40.54515 1347 ft 148 kts 97°
2026-04-26 03:46 64.60734 40.56892 1136 ft 148 kts 97°
2026-04-26 03:46 64.60619 40.59279 930 ft 148 kts 96°
2026-04-26 03:46 64.60505 40.61679 707 ft 148 kts 96°
2026-04-26 03:47 64.60281 40.66406 275 ft 148 kts 97°
2026-04-26 03:47 64.60162 40.68798 71 ft 147 kts 96°
2026-04-26 03:47 64.60060 40.70965 45 ft 121 kts 96°
2026-04-26 03:47 64.59991 40.72377 45 ft 54 kts 96°
2026-04-26 03:48 64.59952 40.73112 45 ft 23 kts 97°
2026-04-26 03:48 64.59938 40.73394 45 ft 18 kts 97°
2026-04-26 03:48 64.59927 40.73621 45 ft 5 kts 97°
2026-04-26 03:48 64.59924 40.73675 45 ft 0 kts 97°
2026-04-26 03:49 64.59924 40.73679 45 ft 0 kts 108°
2026-04-26 03:49 64.59914 40.73694 45 ft 2 kts 174°
2026-04-26 03:49 64.59856 40.73701 45 ft 9 kts 182°
2026-04-26 03:49 64.59782 40.73688 45 ft 11 kts 186°
2026-04-26 03:50 64.59740 40.73679 45 ft 5 kts 178°
2026-04-26 03:50 64.59704 40.73721 45 ft 6 kts 121°
2026-04-26 03:50 64.59690 40.73829 45 ft 5 kts 145°
2026-04-26 03:50 64.59691 40.73754 45 ft 7 kts 306°
2026-04-26 03:51 64.59795 40.72070 45 ft 10 kts 277°
2026-04-26 03:51 64.59784 40.71752 45 ft 11 kts 204°
2026-04-26 03:51 64.59713 40.71670 45 ft 12 kts 248°
2026-04-26 03:51 64.59704 40.71494 45 ft 7 kts 220°
2026-04-26 03:52 64.59669 40.71471 45 ft 3 kts 185°
2026-04-26 03:52 64.59669 40.71470 45 ft 0 kts 185°